Plymouth, MA

4:01 AM EDT on May 25, 2017 (GMT -0400)
Plymouth Municipal

Weather History for KPYM - March, 2014

Change the Weather History Date:

Monday, March 31, 2014

  Actual Average Record
Temperature  
Mean Temperature 35 °F -  
Max Temperature 37 °F 50 °F 84 °F (1977)
Min Temperature 33 °F 32 °F 16 °F (1969)
Degree Days  
Heating Degree Days 30    
Moisture  
Dew Point 30 °F    
Average Humidity 82    
Maximum Humidity 89    
Minimum Humidity 65    
Precipitation  
Precipitation 0.17 in - - ()
Sea Level Pressure  
Sea Level Pressure 29.79 in    
Wind  
Wind Speed 20 mph (NNE)    
Max Wind Speed 29 mph    
Max Gust Speed 40 mph    
Visibility 4 miles    
Events Rain , Snow    
Averages and records for this station are not official NWS values.
T = Trace of Precipitation, MM = Missing Value Source: NWS Daily Summary

Daily Weather History Graph

Daily Weather History Graph

Search for Another Location

Airport or City:

Trip Planner

Search our weather history database for the weather conditions in past years. The results will help you decide how hot, cold, wet, or windy it might be!

Date:

Astronomy

Mar. 31, 2014 Rise Set
Actual Time 6:27 AM EDT 7:07 PM EDT
Civil Twilight 5:59 AM EDT 7:35 PM EDT
Nautical Twilight 5:26 AM EDT 8:08 PM EDT
Astronomical Twilight 4:51 AM EDT 8:43 PM EDT
Moon 6:48 AM EDT (3/31) 8:24 PM EDT (3/31)
Length of Visible Light 13h 36m
Length of Day
12h 39m
New Moon, 1% of the Moon is Illuminated
Mar 31
New Moon
Apr 7
First Quarter
Apr 15
Full
Apr 22
Last Quarter
Apr 29
New

Hourly Weather History & Observations

Time (EDT) Temp. Windchill Dew Point Humidity Pressure Visibility Wind Dir Wind Speed Gust Speed Precip Events Conditions
12:29 AM 36.0 °F 25.0 °F 32.0 °F 86% 29.69 in 1.8 mi North 20.7 mph 27.6 mph 0.10 in Rain Heavy Rain
12:38 AM 36.0 °F 24.7 °F 32.0 °F 86% 29.69 in 3.0 mi NNE 21.9 mph 27.6 mph 0.12 in Rain Rain
12:52 AM 36.0 °F 26.7 °F 32.0 °F 86% 29.70 in 4.0 mi North 15.0 mph 27.6 mph 0.13 in Rain Light Rain
1:52 AM 35.1 °F 23.8 °F 30.9 °F 85% 29.67 in 7.0 mi North 20.7 mph 34.5 mph 0.02 in   Overcast
2:10 AM 35.1 °F 23.5 °F 30.9 °F 85% 29.68 in 6.0 mi North 21.9 mph 34.5 mph 0.00 in   Overcast
2:36 AM 35.1 °F 24.8 °F 30.9 °F 85% 29.69 in 7.0 mi NNE 17.3 mph 25.3 mph 0.00 in   Overcast
2:52 AM 35.1 °F 23.5 °F 30.9 °F 85% 29.69 in 5.0 mi NNE 21.9 mph 29.9 mph 0.00 in   Overcast
3:39 AM 34.0 °F 23.0 °F 30.0 °F 85% 29.68 in 2.5 mi NNE 18.4 mph 32.2 mph 0.00 in   Overcast
3:49 AM 33.8 °F 22.2 °F 30.2 °F 87% 29.68 in 4.0 mi NNE 20.7 mph 31.1 mph 0.00 in Rain Light Rain
3:52 AM 34.0 °F 23.0 °F 30.0 °F 85% 29.68 in 4.0 mi NNE 18.4 mph 31.1 mph 0.00 in Rain Light Rain
4:30 AM 33.1 °F 21.2 °F 30.0 °F 89% 29.67 in 2.5 mi NNE 20.7 mph 31.1 mph 0.00 in Snow Light Snow
4:38 AM 33.1 °F 20.3 °F 30.0 °F 89% 29.67 in 3.0 mi North 24.2 mph 34.5 mph 0.00 in Snow Light Snow
4:52 AM 34.0 °F 22.1 °F 30.0 °F 85% 29.68 in 5.0 mi NNE 21.9 mph 27.6 mph 0.00 in   Overcast
5:52 AM 34.0 °F 23.4 °F 30.0 °F 85% 29.69 in 5.0 mi North 17.3 mph 29.9 mph 0.00 in   Overcast
6:44 AM 34.0 °F 22.7 °F 30.0 °F 85% 29.72 in 5.0 mi North 19.6 mph 32.2 mph 0.00 in   Overcast
6:52 AM 34.0 °F 23.8 °F 30.0 °F 85% 29.73 in 4.0 mi NNE 16.1 mph 27.6 mph 0.00 in   Overcast
7:06 AM 34.0 °F 23.4 °F 30.0 °F 85% 29.72 in 1.8 mi NNE 17.3 mph 28.8 mph 0.00 in Snow Light Snow
7:14 AM 34.0 °F 23.8 °F 30.0 °F 85% 29.72 in 1.5 mi North 16.1 mph 31.1 mph 0.00 in Snow Light Snow
7:52 AM 34.0 °F 22.4 °F 30.0 °F 85% 29.75 in 1.8 mi North 20.7 mph 32.2 mph 0.00 in Snow Light Snow
8:16 AM 34.0 °F 22.1 °F 30.0 °F 85% 29.75 in 2.5 mi North 21.9 mph 35.7 mph 0.00 in Snow Light Snow
8:44 AM 34.0 °F 22.1 °F 30.9 °F 89% 29.76 in 3.0 mi North 21.9 mph 29.9 mph 0.00 in Snow Light Snow
8:52 AM 34.0 °F 21.3 °F 30.0 °F 85% 29.76 in 2.5 mi North 25.3 mph 35.7 mph 0.00 in Snow Light Snow
9:07 AM 34.0 °F 22.4 °F 30.0 °F 85% 29.76 in 3.0 mi North 20.7 mph 32.2 mph 0.00 in   Overcast
9:48 AM 35.6 °F 23.7 °F 30.2 °F 81% 29.77 in 7.0 mi North 24.2 mph 33.4 mph 0.00 in   Overcast
9:52 AM 35.1 °F 23.8 °F 30.0 °F 82% 29.78 in 6.0 mi North 20.7 mph 33.4 mph 0.00 in   Haze
10:18 AM 34.0 °F 20.5 °F 30.0 °F 85% 29.79 in 2.5 mi North 28.8 mph 38.0 mph 0.00 in Snow Light Snow
10:20 AM 35.1 °F 22.5 °F 30.0 °F 82% 29.79 in 3.0 mi North 26.5 mph 38.0 mph 0.00 in Snow Light Snow
10:52 AM 35.1 °F 22.7 °F 30.0 °F 82% 29.80 in 2.0 mi North 25.3 mph 36.8 mph 0.00 in Snow Light Snow
11:04 AM 35.1 °F 22.0 °F 30.0 °F 82% 29.79 in 3.0 mi NNE 28.8 mph 40.3 mph 0.00 in Rain Light Rain
11:18 AM 35.1 °F 23.0 °F 30.0 °F 82% 29.79 in 2.5 mi North 24.2 mph 36.8 mph 0.00 in   Overcast
11:36 AM 34.0 °F 22.7 °F 30.0 °F 85% 29.79 in 1.8 mi NNE 19.6 mph 36.8 mph 0.00 in Snow Light Snow
11:40 AM 35.1 °F 23.5 °F 30.9 °F 85% 29.79 in 2.0 mi NNE 21.9 mph 33.4 mph 0.00 in   Overcast
11:52 AM 35.1 °F 23.8 °F 30.9 °F 85% 29.80 in 2.0 mi North 20.7 mph 38.0 mph 0.00 in Snow Light Snow
11:55 AM 35.1 °F 24.1 °F 30.9 °F 85% 29.79 in 1.8 mi North 19.6 mph 38.0 mph 0.00 in Snow Light Snow
12:06 PM 35.1 °F 23.3 °F 30.9 °F 85% 29.79 in 1.8 mi North 23.0 mph 35.7 mph 0.00 in Snow Light Snow
12:16 PM 34.0 °F 21.3 °F 30.0 °F 85% 29.79 in 1.5 mi North 25.3 mph 34.5 mph 0.01 in Snow Light Snow
12:24 PM 34.0 °F 21.8 °F 30.0 °F 85% 29.79 in 2.0 mi North 23.0 mph 34.5 mph 0.01 in Snow Light Snow
12:31 PM 34.0 °F 21.0 °F 30.0 °F 85% 29.79 in 3.0 mi North 26.5 mph 36.8 mph 0.01 in   Overcast
12:52 PM 35.1 °F 24.5 °F 30.0 °F 82% 29.81 in 3.0 mi North 18.4 mph 33.4 mph 0.01 in Snow Light Snow
1:21 PM 36.0 °F 24.2 °F 30.0 °F 79% 29.81 in 9.0 mi North 24.2 mph 38.0 mph 0.00 in   Overcast
1:47 PM 35.6 °F 23.4 °F 30.2 °F 81% 29.81 in 2.5 mi NNE 25.3 mph 33.4 mph 0.00 in Snow Light Snow
1:52 PM 34.0 °F 21.0 °F 30.0 °F 85% 29.82 in 2.0 mi NNE 26.5 mph 34.5 mph 0.00 in Snow Light Snow
2:00 PM 34.0 °F 22.1 °F 30.0 °F 85% 29.82 in 1.8 mi North 21.9 mph 34.5 mph 0.00 in Snow Light Snow
2:18 PM 35.1 °F 25.2 °F 30.9 °F 85% 29.82 in 2.0 mi North 16.1 mph 31.1 mph 0.00 in   Overcast
2:52 PM 35.1 °F 23.3 °F 30.0 °F 82% 29.84 in 2.5 mi North 23.0 mph 35.7 mph 0.00 in Rain Light Rain
3:11 PM 35.1 °F 23.3 °F 30.9 °F 85% 29.84 in 3.0 mi NNE 23.0 mph 34.5 mph 0.00 in Rain Light Rain
3:52 PM 36.0 °F 25.0 °F 30.9 °F 82% 29.85 in 5.0 mi North 20.7 mph 32.2 mph 0.00 in Rain Light Rain
4:28 PM 35.1 °F 24.8 °F 30.9 °F 85% 29.86 in 2.0 mi NNE 17.3 mph 23.0 mph 0.00 in Snow Light Snow
4:35 PM 34.0 °F 25.0 °F 30.0 °F 85% 29.86 in 1.8 mi North 12.7 mph 26.5 mph 0.01 in Snow Light Snow
4:39 PM 34.0 °F 25.5 °F 30.0 °F 85% 29.86 in 2.0 mi NNE 11.5 mph 26.5 mph 0.01 in Snow Light Snow
4:52 PM 35.1 °F 27.4 °F 30.9 °F 85% 29.88 in 4.0 mi NNE 10.4 mph 18.4 mph 0.01 in Rain Light Rain
5:05 PM 36.0 °F 27.5 °F 30.9 °F 82% 29.87 in 9.0 mi North 12.7 mph - 0.00 in   Overcast
5:52 PM 37.0 °F 27.7 °F 30.0 °F 76% 29.89 in 10.0 mi North 16.1 mph 20.7 mph 0.00 in   Overcast
6:52 PM 37.0 °F 27.4 °F 28.9 °F 73% 29.91 in 10.0 mi North 17.3 mph 25.3 mph N/A   Overcast
7:52 PM 37.0 °F 27.7 °F 28.9 °F 73% 29.93 in 10.0 mi North 16.1 mph 23.0 mph N/A   Overcast
8:52 PM 37.9 °F 30.0 °F 28.9 °F 70% 29.94 in 10.0 mi North 12.7 mph 23.0 mph N/A   Overcast
9:52 PM 37.9 °F 30.5 °F 28.0 °F 68% 29.96 in 10.0 mi North 11.5 mph 21.9 mph N/A   Overcast
10:17 PM 37.9 °F 28.5 °F 28.0 °F 68% 29.95 in 10.0 mi NNE 17.3 mph 32.2 mph N/A   Overcast
10:39 PM 37.9 °F 28.5 °F 28.0 °F 68% 29.96 in 10.0 mi North 17.3 mph 27.6 mph N/A   Overcast
10:52 PM 37.9 °F 28.2 °F 28.0 °F 68% 29.96 in 10.0 mi North 18.4 mph 27.6 mph N/A   Overcast
11:02 PM 37.9 °F 27.3 °F 27.0 °F 65% 29.96 in 10.0 mi North 21.9 mph 33.4 mph N/A   Overcast
11:52 PM 37.0 °F 27.7 °F 28.0 °F 70% 29.97 in 10.0 mi North 16.1 mph 29.9 mph 0.00 in   Overcast